Date String (YYYY-MM-DD hh:mm:ss) UTC,Instrument flags,Ambient pressure (hPa),Sample flow (lpm),Bypass flow (lpm),Sample temperature (°C),Ambient temperature (°C),ASC tube jacket temperature (°C),LED temperature (°C),Box temperature (°C),Sample RH (%),Span deviation,Mass concentration (μg/m³),Mass concentration (μg/m³),Mass concentration (μg/m³)
DateTimeUTC,F1_M11,P_M11,Q1_M11,Q2_M11,T1_M11,T2_M11,T3_M11,T4_M11,T5_M11,U1_M11,ZSPAN_M11,X0_M11,X2_M11,X1_M11
2021-10-24 17:00:00,,0822.4,5.00,0.00,28.7,27.7,00.0,37.7,30.4,11.6,0000.0,0006.39,0002.19,0001.44
2021-10-24 17:01:00,,0822.4,5.01,0.00,28.7,27.7,00.0,37.7,30.4,11.5,0000.0,0004.91,0001.83,0001.21
2021-10-24 17:02:00,,0822.4,4.99,0.00,28.7,27.7,00.0,37.7,30.4,11.5,0000.0,0004.90,0001.84,0001.20
2021-10-24 17:03:00,,0822.4,4.99,0.00,28.7,27.7,00.0,37.7,30.4,11.5,0000.0,0004.04,0001.69,0001.11
2021-10-24 17:04:00,,0822.5,4.99,0.00,28.7,27.8,00.0,37.7,30.5,11.6,0000.0,0002.33,0001.35,0000.91
2021-10-24 17:05:00,,0822.5,5.00,0.00,28.7,27.8,00.0,37.8,30.5,11.5,0000.0,0001.81,0001.06,0000.72
2021-10-24 17:06:00,,0822.4,5.01,0.00,28.7,27.8,00.0,37.8,30.5,11.5,0000.0,0001.59,0000.86,0000.55
2021-10-24 17:07:00,,0822.4,5.00,0.00,28.7,27.8,00.0,37.8,30.5,11.7,0000.0,0001.40,0000.69,0000.45
2021-10-24 17:08:00,,0822.4,4.99,0.00,28.8,27.8,00.0,37.8,30.5,11.7,0000.0,0001.22,0000.60,0000.37
2021-10-24 17:09:00,,0822.4,5.00,0.00,28.8,27.9,00.0,37.8,30.5,11.5,0000.0,0001.11,0000.57,0000.35
2021-10-24 17:10:00,,0822.5,5.00,0.00,28.8,27.8,00.0,37.8,30.5,11.7,0000.0,0001.16,0000.58,0000.35
2021-10-24 17:11:00,,0822.6,5.00,0.00,28.7,27.8,00.0,37.8,30.4,11.6,0000.0,0001.23,0000.61,0000.35
2021-10-24 17:12:00,,0822.7,4.99,0.00,28.8,27.8,00.0,37.8,30.5,11.6,0000.0,0002.66,0000.62,0000.35
2021-10-24 17:13:00,,0822.6,5.00,0.00,28.8,27.8,00.0,37.8,30.5,11.7,0000.0,0002.78,0000.58,0000.34
2021-10-24 17:14:00,,0822.6,5.01,0.00,28.8,27.8,00.0,37.9,30.5,11.7,0000.0,0003.09,0000.56,0000.33
2021-10-24 17:15:00,,0822.6,5.00,0.00,28.8,27.7,00.0,37.9,30.5,11.6,0000.0,0004.71,0000.59,0000.33
2021-10-24 17:16:00,,0822.5,5.00,0.00,28.8,27.7,00.0,37.9,30.5,11.6,0000.0,0004.70,0000.58,0000.32
2021-10-24 17:17:00,,0822.5,5.00,0.00,28.8,27.7,00.0,37.9,30.5,11.7,0000.0,0004.59,0000.57,0000.32
2021-10-24 17:18:00,,0822.5,5.01,0.00,28.8,27.7,00.0,37.9,30.5,11.6,0000.0,0004.78,0000.55,0000.31
2021-10-24 17:19:00,,0822.5,5.00,0.00,28.8,27.7,00.0,37.9,30.4,11.8,0000.0,0005.11,0000.55,0000.31
2021-10-24 17:20:00,,0822.5,5.00,0.00,28.8,27.6,00.0,37.9,30.4,11.8,0000.0,0005.29,0000.61,0000.31
2021-10-24 17:21:00,,0822.5,4.99,0.00,28.7,27.6,00.0,37.9,30.3,11.9,0000.0,0005.29,0000.60,0000.31
2021-10-24 17:22:00,,0822.4,4.98,0.00,28.7,27.6,00.0,37.9,30.3,11.9,0000.0,0005.43,0000.61,0000.31
2021-10-24 17:23:00,,0822.5,5.01,0.00,28.7,27.6,00.0,37.9,30.3,12.0,0000.0,0004.46,0000.62,0000.32
2021-10-24 17:24:00,,0822.5,4.99,0.00,28.7,27.6,00.0,37.9,30.4,11.9,0000.0,0004.10,0000.65,0000.32
2021-10-24 17:25:00,,0822.5,5.00,0.00,28.7,27.6,00.0,37.9,30.4,12.1,0000.0,0004.05,0000.69,0000.34
2021-10-24 17:26:00,,0822.4,5.00,0.00,28.7,27.6,00.0,37.9,30.4,12.1,0000.0,0002.50,0000.74,0000.34
2021-10-24 17:27:00,,0822.4,4.99,0.00,28.7,27.6,00.0,37.9,30.4,11.8,0000.0,0002.56,0000.78,0000.36
2021-10-24 17:28:00,,0822.4,5.00,0.00,28.7,27.6,00.0,37.9,30.3,11.5,0000.0,0002.77,0000.86,0000.37
2021-10-24 17:29:00,,0822.4,4.99,0.00,28.7,27.6,00.0,37.9,30.3,11.5,0000.0,0002.74,0000.92,0000.38
2021-10-24 17:30:00,,0822.4,4.99,0.00,28.7,27.6,00.0,37.9,30.3,11.7,0000.0,0002.37,0000.90,0000.39
2021-10-24 17:31:00,,0822.4,5.01,0.00,28.7,27.5,00.0,37.9,30.3,11.8,0000.0,0002.56,0000.88,0000.40
2021-10-24 17:32:00,,0822.4,5.00,0.00,28.7,27.5,00.0,37.9,30.3,11.6,0000.0,0003.03,0000.89,0000.41
2021-10-24 17:33:00,,0822.4,5.00,0.00,28.7,27.6,00.0,37.9,30.3,11.5,0000.0,0003.65,0000.91,0000.42
2021-10-24 17:34:00,,0822.4,5.00,0.00,28.7,27.6,00.0,37.9,30.3,11.3,0000.0,0003.92,0000.92,0000.44
2021-10-24 17:35:00,,0822.5,5.01,0.00,28.7,27.5,00.0,37.9,30.3,11.3,0000.0,0003.84,0000.94,0000.45
2021-10-24 17:36:00,,0822.5,5.01,0.00,28.7,27.5,00.0,37.9,30.3,11.3,0000.0,0003.77,0000.92,0000.45
2021-10-24 17:37:00,,0822.4,5.00,0.00,28.7,27.5,00.0,37.9,30.3,11.2,0000.0,0003.61,0000.87,0000.46
2021-10-24 17:38:00,,0822.3,5.00,0.00,28.7,27.6,00.0,37.9,30.3,11.3,0000.0,0003.48,0000.84,0000.47
2021-10-24 17:39:00,,0822.3,4.99,0.00,28.6,27.6,00.0,37.9,30.3,11.2,0000.0,0003.32,0000.80,0000.49
2021-10-24 17:40:00,,0822.3,4.99,0.00,28.6,27.6,00.0,37.8,30.3,11.2,0000.0,0003.40,0000.83,0000.51
2021-10-24 17:41:00,,0822.4,5.01,0.00,28.6,27.6,00.0,37.8,30.3,11.3,0000.0,0003.49,0000.89,0000.53
2021-10-24 17:42:00,,0822.4,5.01,0.00,28.6,27.6,00.0,37.8,30.2,11.2,0000.0,0003.62,0000.96,0000.54
2021-10-24 17:43:00,,0822.4,5.00,0.00,28.6,27.6,00.0,37.8,30.2,11.1,0000.0,0003.91,0001.03,0000.56
2021-10-24 17:44:00,,0822.4,5.00,0.00,28.6,27.6,00.0,37.8,30.2,11.2,0000.0,0003.16,0001.02,0000.57
2021-10-24 17:45:00,,0822.3,5.00,0.00,28.6,27.6,00.0,37.8,30.2,11.3,0000.0,0002.95,0001.04,0000.57
2021-10-24 17:46:00,,0822.3,5.02,0.00,28.6,27.6,00.0,37.8,30.2,11.1,0000.0,0003.15,0001.08,0000.59
2021-10-24 17:47:00,,0822.2,4.98,0.00,28.6,27.6,00.0,37.8,30.2,10.9,0000.0,0004.82,0001.10,0000.60
2021-10-24 17:48:00,,0822.3,5.01,0.00,28.6,27.6,00.0,37.8,30.2,10.9,0000.0,0005.14,0001.17,0000.61
2021-10-24 17:49:00,,0822.4,5.00,0.00,28.6,27.6,00.0,37.8,30.2,10.9,0000.0,0005.80,0001.26,0000.62
2021-10-24 17:50:00,,0822.4,5.01,0.00,28.6,27.6,00.0,37.8,30.2,10.7,0000.0,0006.88,0001.39,0000.63
2021-10-24 17:51:00,,0822.3,5.00,0.00,28.6,27.5,00.0,37.8,30.2,10.6,0000.0,0007.20,0001.42,0000.63
2021-10-24 17:52:00,,0822.4,4.99,0.00,28.6,27.5,00.0,37.8,30.2,10.6,0000.0,0007.32,0001.48,0000.62
2021-10-24 17:53:00,,0822.5,5.01,0.00,28.6,27.5,00.0,37.8,30.2,10.8,0000.0,0007.09,0001.43,0000.63
2021-10-24 17:54:00,,0822.5,5.00,0.00,28.6,27.5,00.0,37.8,30.2,10.9,0000.0,0006.42,0001.40,0000.63
2021-10-24 17:55:00,,0822.3,5.00,0.00,28.6,27.5,00.0,37.8,30.2,10.7,0000.0,0006.57,0001.45,0000.64
2021-10-24 17:56:00,,0822.4,5.00,0.00,28.5,27.5,00.0,37.8,30.2,10.6,0000.0,0006.81,0001.53,0000.64
2021-10-24 17:57:00,,0822.2,5.01,0.00,28.5,27.5,00.0,37.8,30.2,10.5,0000.0,0006.90,0001.55,0000.64
2021-10-24 17:58:00,,0822.4,4.99,0.00,28.5,27.5,00.0,37.8,30.2,10.4,0000.0,0005.79,0001.61,0000.64
2021-10-24 17:59:00,,0822.4,4.99,0.00,28.5,27.5,00.0,37.8,30.1,10.5,0000.0,0005.28,0001.59,0000.65
